Time,TemperatureF,DewpointF,PressureIn,WindDirection,WindDirectionDegrees,WindSpeedMPH,WindSpeedGustMPH,Humidity,HourlyPrecipIn,Conditions,Clouds,dailyrainin,SoftwareType,DateUTC
2013-06-16 00:01:00,64.9,59.0,30.03,WNW,290,0.0,0.0,81,0.00,,,0.00,meteohub,2013-06-16 04:01:00,
2013-06-16 00:06:00,64.6,58.6,30.03,WNW,290,0.0,0.0,81,0.00,,,0.00,meteohub,2013-06-16 04:06:00,
2013-06-16 00:11:00,64.4,58.8,30.03,WNW,290,0.0,0.0,82,0.00,,,0.00,meteohub,2013-06-16 04:11:00,
2013-06-16 00:16:00,64.0,58.8,30.03,WNW,289,0.0,0.0,83,0.00,,,0.00,meteohub,2013-06-16 04:16:00,
2013-06-16 00:21:00,64.0,58.8,30.03,WNW,289,0.0,0.0,83,0.00,,,0.00,meteohub,2013-06-16 04:21:00,
2013-06-16 00:26:00,63.9,59.0,30.03,WNW,290,0.0,0.0,84,0.00,,,0.00,meteohub,2013-06-16 04:26:00,
2013-06-16 00:31:00,63.9,59.0,30.03,WNW,290,0.0,0.0,84,0.00,,,0.00,meteohub,2013-06-16 04:31:00,
2013-06-16 00:36:00,63.9,58.6,30.03,WNW,290,0.0,0.0,83,0.00,,,0.00,meteohub,2013-06-16 04:36:00,
2013-06-16 00:41:00,63.7,58.8,30.03,WNW,290,0.0,0.0,84,0.00,,,0.00,meteohub,2013-06-16 04:41:00,
2013-06-16 00:46:00,63.5,58.6,30.04,WNW,290,0.0,0.0,84,0.00,,,0.00,meteohub,2013-06-16 04:46:00,
2013-06-16 00:51:00,63.3,58.5,30.04,WNW,290,0.0,0.0,84,0.00,,,0.00,meteohub,2013-06-16 04:51:00,
2013-06-16 00:56:00,63.7,59.0,30.04,WNW,290,0.0,0.0,85,0.00,,,0.00,meteohub,2013-06-16 04:56:00,
2013-06-16 01:01:00,63.9,59.0,30.04,WNW,290,0.0,0.0,84,0.00,,,0.00,meteohub,2013-06-16 05:01:00,
2013-06-16 01:06:00,63.9,59.0,30.04,WNW,289,0.0,0.0,84,0.00,,,0.00,meteohub,2013-06-16 05:06:00,
2013-06-16 01:11:00,63.9,59.0,30.04,WNW,290,0.0,0.0,84,0.00,,,0.00,meteohub,2013-06-16 05:11:00,
2013-06-16 01:16:00,63.9,59.0,30.04,WNW,290,0.0,2.0,84,0.00,,,0.00,meteohub,2013-06-16 05:16:00,
2013-06-16 01:21:00,64.0,58.8,30.04,WNW,289,0.0,2.0,83,0.00,,,0.00,meteohub,2013-06-16 05:21:00,
2013-06-16 01:26:00,64.0,58.8,30.04,WNW,289,0.0,2.0,83,0.00,,,0.00,meteohub,2013-06-16 05:26:00,
2013-06-16 01:31:00,63.9,58.6,30.04,WNW,290,0.0,2.0,83,0.00,,,0.00,meteohub,2013-06-16 05:31:00,
2013-06-16 01:36:00,63.5,58.6,30.04,WNW,289,0.0,0.0,84,0.00,,,0.00,meteohub,2013-06-16 05:36:00,
2013-06-16 01:41:00,63.1,58.3,30.03,WNW,289,0.0,0.0,84,0.00,,,0.00,meteohub,2013-06-16 05:41:00,
2013-06-16 01:46:00,62.8,58.3,30.03,WNW,290,0.0,0.0,85,0.00,,,0.00,meteohub,2013-06-16 05:46:00,
2013-06-16 01:51:00,62.6,58.3,30.04,WNW,290,0.0,0.0,86,0.00,,,0.00,meteohub,2013-06-16 05:51:00,
2013-06-16 01:56:00,62.4,58.1,30.03,WNW,290,0.0,0.0,86,0.00,,,0.00,meteohub,2013-06-16 05:56:00,
2013-06-16 02:01:00,62.4,58.5,30.03,WNW,290,0.0,0.0,87,0.00,,,0.00,meteohub,2013-06-16 06:01:00,
2013-06-16 02:06:00,62.1,58.1,30.03,WNW,290,0.0,0.0,87,0.00,,,0.00,meteohub,2013-06-16 06:06:00,
2013-06-16 02:11:00,61.9,58.3,30.04,WNW,289,0.0,0.0,88,0.00,,,0.00,meteohub,2013-06-16 06:11:00,
2013-06-16 02:16:00,61.5,57.9,30.03,WNW,290,0.0,0.0,88,0.00,,,0.00,meteohub,2013-06-16 06:16:00,
2013-06-16 02:21:00,61.3,57.7,30.04,WNW,290,0.0,0.0,88,0.00,,,0.00,meteohub,2013-06-16 06:21:00,
2013-06-16 02:26:00,61.2,57.6,30.04,WNW,290,0.0,0.0,88,0.00,,,0.00,meteohub,2013-06-16 06:26:00,
2013-06-16 02:31:00,61.0,57.7,30.04,WNW,289,0.0,0.0,89,0.00,,,0.00,meteohub,2013-06-16 06:31:00,
2013-06-16 02:36:00,61.0,58.1,30.03,WNW,290,0.0,0.0,90,0.00,,,0.00,meteohub,2013-06-16 06:36:00,
2013-06-16 02:41:00,60.8,58.1,30.03,WNW,289,0.0,1.0,91,0.00,,,0.00,meteohub,2013-06-16 06:41:00,
2013-06-16 02:46:00,60.6,57.9,30.03,WNW,290,0.0,1.0,91,0.00,,,0.00,meteohub,2013-06-16 06:46:00,
2013-06-16 02:51:00,60.4,57.7,30.03,WNW,290,0.0,1.0,91,0.00,,,0.00,meteohub,2013-06-16 06:51:00,
2013-06-16 02:56:00,60.1,57.4,30.03,WNW,289,0.0,0.0,91,0.00,,,0.00,meteohub,2013-06-16 06:56:00,
2013-06-16 03:01:00,60.1,57.4,30.03,WNW,290,0.0,0.0,91,0.00,,,0.00,meteohub,2013-06-16 07:01:00,
2013-06-16 03:06:00,59.9,57.2,30.03,WNW,290,0.0,0.0,91,0.00,,,0.00,meteohub,2013-06-16 07:06:00,
2013-06-16 03:11:00,59.7,57.4,30.03,WNW,289,0.0,0.0,92,0.00,,,0.00,meteohub,2013-06-16 07:11:00,
2013-06-16 03:16:00,59.7,57.4,30.03,WNW,289,0.0,0.0,92,0.00,,,0.00,meteohub,2013-06-16 07:16:00,
2013-06-16 03:21:00,59.7,57.4,30.03,WNW,290,0.0,0.0,92,0.00,,,0.00,meteohub,2013-06-16 07:21:00,
2013-06-16 03:26:00,59.5,57.6,30.03,WNW,290,0.0,0.0,93,0.00,,,0.00,meteohub,2013-06-16 07:26:00,
2013-06-16 03:31:00,59.5,57.6,30.02,WNW,290,0.0,0.0,93,0.00,,,0.00,meteohub,2013-06-16 07:31:00,
2013-06-16 03:36:00,59.7,57.7,30.02,WNW,290,0.0,0.0,93,0.00,,,0.00,meteohub,2013-06-16 07:36:00,
2013-06-16 03:41:00,59.5,57.6,30.03,WNW,289,0.0,0.0,93,0.00,,,0.00,meteohub,2013-06-16 07:41:00,
2013-06-16 03:46:00,59.4,57.4,30.03,WNW,290,0.0,0.0,93,0.00,,,0.00,meteohub,2013-06-16 07:46:00,
2013-06-16 03:51:00,59.2,57.2,30.04,WNW,289,0.0,0.0,93,0.00,,,0.00,meteohub,2013-06-16 07:51:00,
2013-06-16 03:56:00,59.2,57.2,30.04,WNW,290,0.0,0.0,93,0.00,,,0.00,meteohub,2013-06-16 07:56:00,
2013-06-16 04:01:00,59.0,57.0,30.04,WNW,289,0.0,0.0,93,0.00,,,0.00,meteohub,2013-06-16 08:01:00,
2013-06-16 04:06:00,59.0,57.0,30.04,WNW,290,0.0,0.0,93,0.00,,,0.00,meteohub,2013-06-16 08:06:00,
2013-06-16 04:11:00,59.0,57.2,30.04,WNW,290,0.0,0.0,94,0.00,,,0.00,meteohub,2013-06-16 08:11:00,
2013-06-16 04:16:00,59.2,57.4,30.04,WNW,290,0.0,0.0,94,0.00,,,0.00,meteohub,2013-06-16 08:16:00,
2013-06-16 04:21:00,59.2,57.4,30.03,WNW,290,0.0,0.0,94,0.00,,,0.00,meteohub,2013-06-16 08:21:00,
2013-06-16 04:26:00,59.4,57.6,30.03,WNW,290,0.0,0.0,94,0.00,,,0.00,meteohub,2013-06-16 08:26:00,
2013-06-16 04:31:00,59.5,57.7,30.03,SSW,205,0.0,0.0,94,0.00,,,0.00,meteohub,2013-06-16 08:31:00,
2013-06-16 04:36:00,59.7,57.9,30.02,South,191,0.0,0.0,94,0.00,,,0.00,meteohub,2013-06-16 08:36:00,
2013-06-16 04:41:00,59.7,57.7,30.03,South,191,0.0,0.0,93,0.00,,,0.00,meteohub,2013-06-16 08:41:00,
2013-06-16 04:46:00,59.9,57.9,30.03,South,191,0.0,0.0,93,0.00,,,0.00,meteohub,2013-06-16 08:46:00,
2013-06-16 04:51:00,60.1,58.1,30.03,South,191,0.0,0.0,93,0.00,,,0.00,meteohub,2013-06-16 08:51:00,
2013-06-16 04:56:00,60.1,58.1,30.03,South,191,0.0,0.0,93,0.00,,,0.00,meteohub,2013-06-16 08:56:00,
2013-06-16 05:01:00,60.1,58.1,30.03,South,191,0.0,0.0,93,0.00,,,0.00,meteohub,2013-06-16 09:01:00,
2013-06-16 05:06:00,60.1,57.7,30.03,South,191,0.0,0.0,92,0.00,,,0.00,meteohub,2013-06-16 09:06:00,
2013-06-16 05:11:00,60.1,57.7,30.03,South,191,0.0,0.0,92,0.00,,,0.00,meteohub,2013-06-16 09:11:00,
2013-06-16 05:16:00,59.9,57.6,30.02,SSW,192,0.0,0.0,92,0.00,,,0.00,meteohub,2013-06-16 09:16:00,
2013-06-16 05:21:00,59.7,57.7,30.02,South,191,0.0,0.0,93,0.00,,,0.00,meteohub,2013-06-16 09:21:00,
2013-06-16 05:26:00,59.7,57.4,30.02,SSW,192,0.0,0.0,92,0.00,,,0.00,meteohub,2013-06-16 09:26:00,
2013-06-16 05:31:00,59.5,57.2,30.02,SSW,192,0.0,0.0,92,0.00,,,0.00,meteohub,2013-06-16 09:31:00,
2013-06-16 05:36:00,59.4,57.0,30.02,South,191,0.0,0.0,92,0.00,,,0.00,meteohub,2013-06-16 09:36:00,
2013-06-16 05:41:00,59.4,57.4,30.02,South,191,0.0,0.0,93,0.00,,,0.00,meteohub,2013-06-16 09:41:00,
2013-06-16 05:46:00,59.2,57.2,30.02,South,191,0.0,0.0,93,0.00,,,0.00,meteohub,2013-06-16 09:46:00,
2013-06-16 05:51:00,59.2,57.2,30.02,South,191,0.0,0.0,93,0.00,,,0.00,meteohub,2013-06-16 09:51:00,
2013-06-16 05:56:00,59.2,57.2,30.02,South,191,0.0,0.0,93,0.00,,,0.00,meteohub,2013-06-16 09:56:00,
2013-06-16 06:02:00,59.0,57.0,30.02,South,191,0.0,0.0,93,0.00,,,0.00,meteohub,2013-06-16 10:02:00,
2013-06-16 06:06:00,58.8,57.0,30.02,South,191,0.0,0.0,94,0.00,,,0.00,meteohub,2013-06-16 10:06:00,
2013-06-16 06:11:00,58.8,57.0,30.03,South,191,0.0,0.0,94,0.00,,,0.00,meteohub,2013-06-16 10:11:00,
2013-06-16 06:16:00,59.0,57.2,30.02,SSW,192,0.0,0.0,94,0.00,,,0.00,meteohub,2013-06-16 10:16:00,
2013-06-16 06:21:00,59.2,57.4,30.02,SSW,192,0.0,0.0,94,0.00,,,0.00,meteohub,2013-06-16 10:21:00,
2013-06-16 06:26:00,59.4,57.6,30.02,South,191,0.0,0.0,94,0.00,,,0.00,meteohub,2013-06-16 10:26:00,
2013-06-16 06:31:00,59.5,58.1,30.02,South,191,0.0,0.0,95,0.00,,,0.00,meteohub,2013-06-16 10:31:00,
2013-06-16 06:36:00,59.7,58.3,30.02,South,191,0.0,0.0,95,0.00,,,0.00,meteohub,2013-06-16 10:36:00,
2013-06-16 06:42:00,60.1,58.3,30.02,South,191,0.0,0.0,94,0.00,,,0.00,meteohub,2013-06-16 10:42:00,
2013-06-16 06:47:00,60.3,58.5,30.02,South,191,0.0,0.0,94,0.00,,,0.00,meteohub,2013-06-16 10:47:00,
2013-06-16 06:52:00,60.4,58.6,30.02,SSW,192,0.0,0.0,94,0.00,,,0.00,meteohub,2013-06-16 10:52:00,
2013-06-16 06:56:00,60.8,59.0,30.03,SSW,207,0.0,0.0,94,0.00,,,0.00,meteohub,2013-06-16 10:56:00,
2013-06-16 07:01:00,61.2,59.2,30.03,SSW,207,0.0,0.0,93,0.00,,,0.00,meteohub,2013-06-16 11:01:00,
2013-06-16 07:06:00,61.3,59.0,30.03,West,264,0.0,0.0,92,0.00,,,0.00,meteohub,2013-06-16 11:06:00,
2013-06-16 07:11:00,61.7,59.0,30.03,West,264,1.0,1.0,91,0.00,,,0.00,meteohub,2013-06-16 11:11:00,
2013-06-16 07:16:00,62.1,59.2,30.03,WNW,284,0.0,1.0,90,0.00,,,0.00,meteohub,2013-06-16 11:16:00,
2013-06-16 07:21:00,62.1,59.2,30.03,WNW,287,1.0,2.0,90,0.00,,,0.00,meteohub,2013-06-16 11:21:00,
2013-06-16 07:26:00,62.4,59.2,30.03,West,264,0.0,3.0,89,0.00,,,0.00,meteohub,2013-06-16 11:26:00,
2013-06-16 07:31:00,62.6,59.0,30.03,West,264,0.0,3.0,88,0.00,,,0.00,meteohub,2013-06-16 11:31:00,
2013-06-16 07:36:00,62.8,59.2,30.03,West,270,0.0,3.0,88,0.00,,,0.00,meteohub,2013-06-16 11:36:00,
2013-06-16 07:41:00,62.8,59.2,30.03,West,270,0.0,2.0,88,0.00,,,0.00,meteohub,2013-06-16 11:41:00,
2013-06-16 07:46:00,63.0,59.4,30.02,SE,141,0.0,2.0,88,0.00,,,0.00,meteohub,2013-06-16 11:46:00,
2013-06-16 07:51:00,63.1,59.5,30.02,SE,141,0.0,2.0,88,0.00,,,0.00,meteohub,2013-06-16 11:51:00,
2013-06-16 07:56:00,63.1,59.2,30.02,SE,141,0.0,1.0,87,0.00,,,0.00,meteohub,2013-06-16 11:56:00,
2013-06-16 08:01:00,63.3,59.4,30.02,West,281,0.0,1.0,87,0.00,,,0.00,meteohub,2013-06-16 12:01:00,
2013-06-16 08:06:00,63.7,59.7,30.02,SE,141,0.0,1.0,87,0.00,,,0.00,meteohub,2013-06-16 12:06:00,
2013-06-16 08:11:00,63.9,59.5,30.01,SSE,159,0.0,1.0,86,0.00,,,0.00,meteohub,2013-06-16 12:11:00,
2013-06-16 08:16:00,64.0,59.7,30.02,SSE,159,0.0,0.0,86,0.00,,,0.00,meteohub,2013-06-16 12:16:00,
2013-06-16 08:21:00,64.2,59.5,30.01,SSE,160,0.0,0.0,85,0.00,,,0.00,meteohub,2013-06-16 12:21:00,
2013-06-16 08:26:00,64.4,59.5,30.01,SSE,158,0.0,0.0,84,0.00,,,0.00,meteohub,2013-06-16 12:26:00,
2013-06-16 08:31:00,64.6,59.7,30.01,SSW,202,0.0,1.0,84,0.00,,,0.00,meteohub,2013-06-16 12:31:00,
2013-06-16 08:36:00,64.8,59.9,30.01,SSW,201,0.0,1.0,84,0.00,,,0.00,meteohub,2013-06-16 12:36:00,
2013-06-16 08:41:00,64.8,59.5,30.01,WNW,295,1.0,1.0,83,0.00,,,0.00,meteohub,2013-06-16 12:41:00,
2013-06-16 08:46:00,64.9,59.9,30.01,WSW,250,1.0,1.0,84,0.00,,,0.00,meteohub,2013-06-16 12:46:00,
2013-06-16 08:51:00,65.1,59.9,30.00,West,271,0.0,1.0,83,0.00,,,0.00,meteohub,2013-06-16 12:51:00,
2013-06-16 08:56:00,65.5,60.3,30.00,West,272,1.0,2.0,83,0.00,,,0.00,meteohub,2013-06-16 12:56:00,
2013-06-16 09:01:00,65.8,60.3,30.00,NW,307,1.0,2.0,82,0.00,,,0.00,meteohub,2013-06-16 13:01:00,
2013-06-16 09:06:00,66.4,60.4,30.00,WNW,292,1.0,2.0,81,0.00,,,0.00,meteohub,2013-06-16 13:06:00,
2013-06-16 09:11:00,66.7,60.1,29.99,West,275,0.0,4.0,79,0.00,,,0.00,meteohub,2013-06-16 13:11:00,
2013-06-16 09:16:00,67.3,60.3,29.99,WNW,288,0.0,4.0,78,0.00,,,0.00,meteohub,2013-06-16 13:16:00,
2013-06-16 09:21:00,67.6,60.3,29.99,WNW,285,0.0,4.0,77,0.00,,,0.00,meteohub,2013-06-16 13:21:00,
2013-06-16 09:26:00,68.2,60.3,29.99,West,281,0.0,2.0,76,0.00,,,0.00,meteohub,2013-06-16 13:26:00,
2013-06-16 09:31:00,68.4,60.1,29.99,WNW,291,1.0,3.0,75,0.00,,,0.00,meteohub,2013-06-16 13:31:00,
2013-06-16 09:36:00,68.5,60.3,29.99,South,186,0.0,3.0,75,0.00,,,0.00,meteohub,2013-06-16 13:36:00,
2013-06-16 09:41:00,68.7,60.1,29.99,South,186,0.0,3.0,74,0.00,,,0.00,meteohub,2013-06-16 13:41:00,
2013-06-16 09:46:00,69.1,60.4,29.99,SW,218,0.0,3.0,74,0.00,,,0.00,meteohub,2013-06-16 13:46:00,
2013-06-16 09:51:00,69.4,60.4,29.98,SW,229,0.0,1.0,73,0.00,,,0.00,meteohub,2013-06-16 13:51:00,
2013-06-16 09:56:00,70.0,61.0,29.98,West,262,0.0,3.0,73,0.00,,,0.00,meteohub,2013-06-16 13:56:00,
2013-06-16 10:01:00,70.5,60.6,29.98,SW,233,0.0,3.0,71,0.00,,,0.00,meteohub,2013-06-16 14:01:00,
2013-06-16 10:06:00,70.9,60.3,29.97,WNW,298,0.0,3.0,69,0.00,,,0.00,meteohub,2013-06-16 14:06:00,
2013-06-16 10:11:00,71.2,60.6,29.98,WNW,285,0.0,2.0,69,0.00,,,0.00,meteohub,2013-06-16 14:11:00,
2013-06-16 10:16:00,71.4,59.5,29.98,SE,146,0.0,5.0,66,0.00,,,0.00,meteohub,2013-06-16 14:16:00,
2013-06-16 10:21:00,71.8,59.7,29.98,SW,229,0.0,5.0,66,0.00,,,0.00,meteohub,2013-06-16 14:21:00,
2013-06-16 10:26:00,72.7,58.8,29.98,NW,307,1.0,5.0,62,0.00,,,0.00,meteohub,2013-06-16 14:26:00,
2013-06-16 10:31:00,73.6,59.4,29.97,SSE,153,0.0,3.0,61,0.00,,,0.00,meteohub,2013-06-16 14:31:00,
2013-06-16 10:36:00,74.3,58.6,29.97,SW,215,0.0,5.0,58,0.00,,,0.00,meteohub,2013-06-16 14:36:00,
2013-06-16 10:41:00,75.0,57.7,29.97,SSE,165,1.0,5.0,55,0.00,,,0.00,meteohub,2013-06-16 14:41:00,
2013-06-16 10:46:00,75.9,58.1,29.97,South,172,1.0,5.0,54,0.00,,,0.00,meteohub,2013-06-16 14:46:00,
2013-06-16 10:51:00,76.6,58.3,29.97,ESE,121,2.0,5.0,53,0.00,,,0.00,meteohub,2013-06-16 14:51:00,
2013-06-16 10:56:00,77.2,57.7,29.96,WNW,300,3.0,5.0,51,0.00,,,0.00,meteohub,2013-06-16 14:56:00,
2013-06-16 11:01:00,77.2,59.2,29.96,WNW,295,0.0,6.0,54,0.00,,,0.00,meteohub,2013-06-16 15:01:00,
2013-06-16 11:06:00,77.2,58.3,29.96,WNW,294,3.0,6.0,52,0.00,,,0.00,meteohub,2013-06-16 15:06:00,
2013-06-16 11:11:00,77.7,58.6,29.95,SSE,153,4.0,6.0,52,0.00,,,0.00,meteohub,2013-06-16 15:11:00,
2013-06-16 11:16:00,78.4,58.3,29.95,NW,305,3.0,8.0,50,0.00,,,0.00,meteohub,2013-06-16 15:16:00,
2013-06-16 11:21:00,79.0,57.6,29.94,ESE,110,3.0,8.0,48,0.00,,,0.00,meteohub,2013-06-16 15:21:00,
2013-06-16 11:26:00,79.3,57.4,29.94,SW,217,0.0,8.0,47,0.00,,,0.00,meteohub,2013-06-16 15:26:00,
2013-06-16 11:31:00,79.9,57.9,29.94,WSW,255,1.0,6.0,47,0.00,,,0.00,meteohub,2013-06-16 15:31:00,
2013-06-16 11:36:00,80.1,57.4,29.94,West,270,1.0,6.0,46,0.00,,,0.00,meteohub,2013-06-16 15:36:00,
2013-06-16 11:41:00,80.1,56.8,29.94,WSW,249,2.0,6.0,45,0.00,,,0.00,meteohub,2013-06-16 15:41:00,
2013-06-16 11:46:00,80.4,57.2,29.93,SSE,164,0.0,7.0,45,0.00,,,0.00,meteohub,2013-06-16 15:46:00,
2013-06-16 11:52:00,80.8,56.8,29.93,NNW,336,0.0,7.0,44,0.00,,,0.00,meteohub,2013-06-16 15:52:00,
2013-06-16 11:57:00,81.1,57.2,29.93,NW,304,2.0,7.0,44,0.00,,,0.00,meteohub,2013-06-16 15:57:00,
2013-06-16 12:02:00,81.5,57.6,29.93,NW,311,3.0,7.0,44,0.00,,,0.00,meteohub,2013-06-16 16:02:00,
2013-06-16 12:07:00,81.5,57.6,29.92,SSE,153,1.0,10.0,44,0.00,,,0.00,meteohub,2013-06-16 16:07:00,
2013-06-16 12:11:00,81.7,57.6,29.92,NNE,23,4.0,10.0,44,0.00,,,0.00,meteohub,2013-06-16 16:11:00,
2013-06-16 12:16:00,81.9,57.2,29.92,SSE,159,2.0,10.0,43,0.00,,,0.00,meteohub,2013-06-16 16:16:00,
2013-06-16 12:21:00,82.6,55.8,29.91,SSE,158,2.0,9.0,40,0.00,,,0.00,meteohub,2013-06-16 16:21:00,
2013-06-16 12:26:00,82.6,56.5,29.91,WNW,302,3.0,9.0,41,0.00,,,0.00,meteohub,2013-06-16 16:26:00,
2013-06-16 12:31:00,82.4,56.3,29.91,SW,236,0.0,9.0,41,0.00,,,0.00,meteohub,2013-06-16 16:31:00,
2013-06-16 12:36:00,82.8,57.4,29.91,SW,231,1.0,7.0,42,0.00,,,0.00,meteohub,2013-06-16 16:36:00,
2013-06-16 12:41:00,82.6,57.7,29.90,SSE,148,1.0,7.0,43,0.00,,,0.00,meteohub,2013-06-16 16:41:00,
2013-06-16 12:46:00,82.2,56.8,29.90,West,277,2.0,7.0,42,0.00,,,0.00,meteohub,2013-06-16 16:46:00,
2013-06-16 12:51:00,82.2,57.6,29.90,West,281,4.0,8.0,43,0.00,,,0.00,meteohub,2013-06-16 16:51:00,
2013-06-16 12:56:00,82.2,58.1,29.89,North,349,1.0,10.0,44,0.00,,,0.00,meteohub,2013-06-16 16:56:00,
2013-06-16 13:01:00,82.6,59.0,29.89,SW,222,8.0,10.0,45,0.00,,,0.00,meteohub,2013-06-16 17:01:00,
2013-06-16 13:06:00,82.6,58.5,29.89,SE,132,3.0,10.0,44,0.00,,,0.00,meteohub,2013-06-16 17:06:00,
2013-06-16 13:11:00,82.9,58.1,29.88,WNW,296,8.0,8.0,43,0.00,,,0.00,meteohub,2013-06-16 17:11:00,
2013-06-16 13:16:00,83.5,57.9,29.88,SSW,212,2.0,9.0,42,0.00,,,0.00,meteohub,2013-06-16 17:16:00,
2013-06-16 13:21:00,83.8,58.3,29.87,South,191,12.0,12.0,42,0.00,,,0.00,meteohub,2013-06-16 17:21:00,
2013-06-16 13:26:00,83.8,60.3,29.88,WNW,298,2.0,13.0,45,0.00,,,0.00,meteohub,2013-06-16 17:26:00,
2013-06-16 13:31:00,84.6,60.3,29.88,South,179,3.0,13.0,44,0.00,,,0.00,meteohub,2013-06-16 17:31:00,
2013-06-16 13:36:00,84.6,60.3,29.87,WNW,298,8.0,13.0,44,0.00,,,0.00,meteohub,2013-06-16 17:36:00,
2013-06-16 13:41:00,83.3,59.2,29.87,WNW,291,5.0,11.0,44,0.00,,,0.00,meteohub,2013-06-16 17:41:00,
2013-06-16 13:46:00,82.8,59.9,29.87,NW,308,6.0,11.0,46,0.00,,,0.00,meteohub,2013-06-16 17:46:00,
2013-06-16 13:51:00,82.2,60.6,29.87,West,273,6.0,11.0,48,0.00,,,0.00,meteohub,2013-06-16 17:51:00,
2013-06-16 13:56:00,82.0,60.4,29.87,WNW,300,3.0,10.0,48,0.00,,,0.00,meteohub,2013-06-16 17:56:00,
2013-06-16 14:01:00,81.9,60.8,29.87,SSW,202,1.0,10.0,49,0.00,,,0.00,meteohub,2013-06-16 18:01:00,
2013-06-16 14:06:00,81.9,60.8,29.86,SW,217,1.0,10.0,49,0.00,,,0.00,meteohub,2013-06-16 18:06:00,
2013-06-16 14:11:00,81.9,61.3,29.86,SE,137,1.0,8.0,50,0.00,,,0.00,meteohub,2013-06-16 18:11:00,
2013-06-16 14:16:00,81.7,61.2,29.85,West,280,1.0,8.0,50,0.00,,,0.00,meteohub,2013-06-16 18:16:00,
2013-06-16 14:21:00,81.7,61.2,29.85,South,184,3.0,8.0,50,0.00,,,0.00,meteohub,2013-06-16 18:21:00,
2013-06-16 14:26:00,81.7,61.9,29.84,South,172,1.0,11.0,51,0.00,,,0.00,meteohub,2013-06-16 18:26:00,
2013-06-16 14:31:00,82.0,62.6,29.84,SSW,195,2.0,11.0,52,0.00,,,0.00,meteohub,2013-06-16 18:31:00,
2013-06-16 14:36:00,82.0,62.1,29.84,SSE,167,5.0,11.0,51,0.00,,,0.00,meteohub,2013-06-16 18:36:00,
2013-06-16 14:41:00,82.0,61.5,29.83,SSE,166,3.0,10.0,50,0.00,,,0.00,meteohub,2013-06-16 18:41:00,
2013-06-16 14:46:00,82.2,62.2,29.83,ENE,59,1.0,10.0,51,0.00,,,0.00,meteohub,2013-06-16 18:46:00,
2013-06-16 14:51:00,82.6,63.1,29.83,SE,134,2.0,10.0,52,0.00,,,0.00,meteohub,2013-06-16 18:51:00,
2013-06-16 14:56:00,82.8,63.3,29.83,SW,233,1.0,10.0,52,0.00,,,0.00,meteohub,2013-06-16 18:56:00,
2013-06-16 15:02:00,82.9,63.0,29.83,SSW,197,3.0,8.0,51,0.00,,,0.00,meteohub,2013-06-16 19:02:00,
2013-06-16 15:07:00,82.8,62.8,29.83,SSE,155,2.0,11.0,51,0.00,,,0.00,meteohub,2013-06-16 19:07:00,
2013-06-16 15:12:00,82.8,62.2,29.83,NW,309,6.0,11.0,50,0.00,,,0.00,meteohub,2013-06-16 19:12:00,
2013-06-16 15:17:00,82.6,62.6,29.83,ESE,120,2.0,12.0,51,0.00,,,0.00,meteohub,2013-06-16 19:17:00,
2013-06-16 15:22:00,82.6,63.1,29.83,NW,304,3.0,20.0,52,0.00,,,0.00,meteohub,2013-06-16 19:22:00,
2013-06-16 15:27:00,82.8,63.9,29.83,East,79,4.0,20.0,53,0.00,,,0.00,meteohub,2013-06-16 19:27:00,
2013-06-16 15:32:00,82.6,64.2,29.83,SSW,198,2.0,20.0,54,0.00,,,0.00,meteohub,2013-06-16 19:32:00,
2013-06-16 15:37:00,82.6,63.7,29.83,WNW,294,2.0,13.0,53,0.00,,,0.00,meteohub,2013-06-16 19:37:00,
2013-06-16 15:42:00,82.2,63.9,29.83,WNW,283,6.0,11.0,54,0.00,,,0.00,meteohub,2013-06-16 19:42:00,
2013-06-16 15:46:00,82.2,64.4,29.83,WNW,302,4.0,13.0,55,0.00,,,0.00,meteohub,2013-06-16 19:46:00,
2013-06-16 15:51:00,82.0,64.8,29.83,NW,304,3.0,13.0,56,0.00,,,0.00,meteohub,2013-06-16 19:51:00,
2013-06-16 15:56:00,82.4,65.1,29.83,West,278,4.0,13.0,56,0.00,,,0.00,meteohub,2013-06-16 19:56:00,
2013-06-16 16:02:00,82.2,64.4,29.83,NNW,345,1.0,13.0,55,0.00,,,0.00,meteohub,2013-06-16 20:02:00,
2013-06-16 16:07:00,82.2,64.9,29.83,WNW,297,8.0,13.0,56,0.00,,,0.00,meteohub,2013-06-16 20:07:00,
2013-06-16 16:11:00,82.2,64.4,29.83,SW,230,1.0,13.0,55,0.00,,,0.00,meteohub,2013-06-16 20:11:00,
2013-06-16 16:16:00,82.4,64.0,29.83,SW,224,6.0,13.0,54,0.00,,,0.00,meteohub,2013-06-16 20:16:00,
2013-06-16 16:21:00,82.6,64.2,29.83,NE,43,1.0,16.0,54,0.00,,,0.00,meteohub,2013-06-16 20:21:00,
2013-06-16 16:26:00,82.8,64.4,29.83,NNW,333,1.0,16.0,54,0.00,,,0.00,meteohub,2013-06-16 20:26:00,
2013-06-16 16:31:00,82.6,64.2,29.83,West,279,2.0,16.0,54,0.00,,,0.00,meteohub,2013-06-16 20:31:00,
2013-06-16 16:36:00,82.6,64.8,29.83,WSW,242,0.0,14.0,55,0.00,,,0.00,meteohub,2013-06-16 20:36:00,
2013-06-16 16:41:00,82.2,64.4,29.83,NW,309,1.0,14.0,55,0.00,,,0.00,meteohub,2013-06-16 20:41:00,
2013-06-16 16:46:00,82.2,64.9,29.83,SW,214,1.0,13.0,56,0.00,,,0.00,meteohub,2013-06-16 20:46:00,
2013-06-16 16:51:00,82.2,64.9,29.83,WSW,257,1.0,11.0,56,0.00,,,0.00,meteohub,2013-06-16 20:51:00,
2013-06-16 16:56:00,82.8,65.5,29.83,WNW,296,1.0,11.0,56,0.00,,,0.00,meteohub,2013-06-16 20:56:00,
2013-06-16 17:01:00,82.6,65.3,29.83,WNW,294,4.0,11.0,56,0.00,,,0.00,meteohub,2013-06-16 21:01:00,
2013-06-16 17:06:00,82.6,66.4,29.84,WNW,290,8.0,11.0,58,0.00,,,0.00,meteohub,2013-06-16 21:06:00,
2013-06-16 17:11:00,82.2,65.5,29.84,West,273,4.0,15.0,57,0.00,,,0.00,meteohub,2013-06-16 21:11:00,
2013-06-16 17:16:00,82.0,65.8,29.83,WNW,294,12.0,15.0,58,0.00,,,0.00,meteohub,2013-06-16 21:16:00,
2013-06-16 17:21:00,81.9,65.7,29.83,WNW,301,5.0,15.0,58,0.00,,,0.00,meteohub,2013-06-16 21:21:00,
2013-06-16 17:26:00,81.9,65.7,29.83,WNW,298,9.0,15.0,58,0.00,,,0.00,meteohub,2013-06-16 21:26:00,
2013-06-16 17:31:00,82.0,66.4,29.83,WNW,295,11.0,15.0,59,0.00,,,0.00,meteohub,2013-06-16 21:31:00,
2013-06-16 17:36:00,81.9,65.1,29.83,NW,312,7.0,15.0,57,0.00,,,0.00,meteohub,2013-06-16 21:36:00,
2013-06-16 17:41:00,81.9,65.7,29.83,SSW,212,3.0,20.0,58,0.00,,,0.00,meteohub,2013-06-16 21:41:00,
2013-06-16 17:46:00,81.7,64.9,29.83,WNW,293,8.0,20.0,57,0.00,,,0.00,meteohub,2013-06-16 21:46:00,
2013-06-16 17:51:00,81.7,64.9,29.84,WNW,288,7.0,20.0,57,0.00,,,0.00,meteohub,2013-06-16 21:51:00,
2013-06-16 17:56:00,81.5,64.8,29.83,WNW,295,6.0,15.0,57,0.00,,,0.00,meteohub,2013-06-16 21:56:00,
2013-06-16 18:01:00,81.5,65.3,29.83,WNW,285,9.0,15.0,58,0.00,,,0.00,meteohub,2013-06-16 22:01:00,
2013-06-16 18:06:00,81.1,64.9,29.83,WNW,297,4.0,15.0,58,0.00,,,0.00,meteohub,2013-06-16 22:06:00,
2013-06-16 18:11:00,81.0,64.8,29.84,NW,308,6.0,18.0,58,0.00,,,0.00,meteohub,2013-06-16 22:11:00,
2013-06-16 18:16:00,80.8,65.1,29.84,NW,304,10.0,18.0,59,0.00,,,0.00,meteohub,2013-06-16 22:16:00,
2013-06-16 18:21:00,80.4,64.8,29.84,WSW,245,11.0,21.0,59,0.00,,,0.00,meteohub,2013-06-16 22:21:00,
2013-06-16 18:26:00,80.2,65.1,29.84,SW,231,10.0,21.0,60,0.00,,,0.00,meteohub,2013-06-16 22:26:00,
2013-06-16 18:31:00,79.9,65.3,29.84,NW,314,6.0,21.0,61,0.00,,,0.00,meteohub,2013-06-16 22:31:00,
2013-06-16 18:36:00,79.9,65.7,29.84,WNW,288,5.0,16.0,62,0.00,,,0.00,meteohub,2013-06-16 22:36:00,
2013-06-16 18:41:00,79.9,65.7,29.84,WNW,291,3.0,13.0,62,0.00,,,0.00,meteohub,2013-06-16 22:41:00,
2013-06-16 18:47:00,79.7,65.5,29.83,WNW,283,8.0,13.0,62,0.00,,,0.00,meteohub,2013-06-16 22:47:00,
2013-06-16 18:52:00,79.5,65.8,29.84,NW,304,3.0,16.0,63,0.00,,,0.00,meteohub,2013-06-16 22:52:00,
2013-06-16 18:57:00,79.3,65.7,29.84,NW,322,1.0,16.0,63,0.00,,,0.00,meteohub,2013-06-16 22:57:00,
2013-06-16 19:02:00,79.3,65.7,29.85,WNW,302,5.0,16.0,63,0.00,,,0.00,meteohub,2013-06-16 23:02:00,
2013-06-16 19:07:00,79.3,65.7,29.85,West,270,8.0,13.0,63,0.00,,,0.00,meteohub,2013-06-16 23:07:00,
2013-06-16 19:12:00,79.5,65.8,29.84,WNW,302,6.0,13.0,63,0.00,,,0.00,meteohub,2013-06-16 23:12:00,
2013-06-16 19:17:00,79.5,65.8,29.84,SE,141,4.0,13.0,63,0.00,,,0.00,meteohub,2013-06-16 23:17:00,
2013-06-16 19:22:00,80.1,65.8,29.84,WNW,290,5.0,13.0,62,0.00,,,0.00,meteohub,2013-06-16 23:22:00,
2013-06-16 19:27:00,79.9,66.2,29.85,WNW,291,8.0,15.0,63,0.00,,,0.00,meteohub,2013-06-16 23:27:00,
2013-06-16 19:32:00,79.7,66.0,29.85,WNW,295,2.0,15.0,63,0.00,,,0.00,meteohub,2013-06-16 23:32:00,
2013-06-16 19:37:00,79.9,66.2,29.85,WNW,285,4.0,15.0,63,0.00,,,0.00,meteohub,2013-06-16 23:37:00,
2013-06-16 19:42:00,79.7,66.4,29.85,WNW,295,13.0,13.0,64,0.00,,,0.00,meteohub,2013-06-16 23:42:00,
2013-06-16 19:47:00,79.5,66.2,29.85,WNW,288,6.0,13.0,64,0.00,,,0.00,meteohub,2013-06-16 23:47:00,
2013-06-16 19:51:00,79.2,66.4,29.85,West,279,3.0,13.0,65,0.00,,,0.00,meteohub,2013-06-16 23:51:00,
2013-06-16 19:57:00,79.0,66.2,29.86,SSE,150,2.0,13.0,65,0.00,,,0.00,meteohub,2013-06-16 23:57:00,
2013-06-16 20:01:00,78.6,66.4,29.86,WNW,283,4.0,13.0,66,0.00,,,0.00,meteohub,2013-06-17 00:01:00,
2013-06-16 20:07:00,78.3,66.4,29.86,WNW,301,2.0,13.0,67,0.00,,,0.00,meteohub,2013-06-17 00:07:00,
2013-06-16 20:12:00,77.9,66.6,29.86,WNW,302,3.0,9.0,68,0.00,,,0.00,meteohub,2013-06-17 00:12:00,
2013-06-16 20:17:00,77.5,66.2,29.86,WNW,292,5.0,15.0,68,0.00,,,0.00,meteohub,2013-06-17 00:17:00,
2013-06-16 20:22:00,77.4,66.4,29.86,West,267,2.0,15.0,69,0.00,,,0.00,meteohub,2013-06-17 00:22:00,
2013-06-16 20:27:00,77.2,66.2,29.86,NW,318,2.0,15.0,69,0.00,,,0.00,meteohub,2013-06-17 00:27:00,
2013-06-16 20:32:00,76.8,66.2,29.86,NW,318,2.0,14.0,70,0.00,,,0.00,meteohub,2013-06-17 00:32:00,
2013-06-16 20:37:00,76.6,66.2,29.86,WNW,288,4.0,12.0,70,0.00,,,0.00,meteohub,2013-06-17 00:37:00,
2013-06-16 20:42:00,76.5,66.4,29.86,NNW,333,3.0,12.0,71,0.00,,,0.00,meteohub,2013-06-17 00:42:00,
2013-06-16 20:47:00,76.3,66.6,29.86,WNW,283,6.0,10.0,72,0.00,,,0.00,meteohub,2013-06-17 00:47:00,
2013-06-16 20:52:00,75.9,66.2,29.87,West,275,2.0,10.0,72,0.00,,,0.00,meteohub,2013-06-17 00:52:00,
2013-06-16 20:57:00,75.7,66.4,29.87,West,274,1.0,10.0,73,0.00,,,0.00,meteohub,2013-06-17 00:57:00,
2013-06-16 21:02:00,75.6,66.4,29.87,NW,304,4.0,9.0,73,0.00,,,0.00,meteohub,2013-06-17 01:02:00,
2013-06-16 21:06:00,75.6,66.7,29.87,West,279,1.0,9.0,74,0.00,,,0.00,meteohub,2013-06-17 01:06:00,
2013-06-16 21:11:00,75.4,66.6,29.88,WNW,283,0.0,9.0,74,0.00,,,0.00,meteohub,2013-06-17 01:11:00,
2013-06-16 21:16:00,75.4,66.6,29.88,WNW,300,2.0,8.0,74,0.00,,,0.00,meteohub,2013-06-17 01:16:00,
2013-06-16 21:22:00,75.0,66.6,29.88,WNW,287,1.0,8.0,75,0.00,,,0.00,meteohub,2013-06-17 01:22:00,
2013-06-16 21:27:00,75.0,66.6,29.88,West,267,2.0,8.0,75,0.00,,,0.00,meteohub,2013-06-17 01:27:00,
2013-06-16 21:32:00,74.8,66.4,29.88,WNW,290,3.0,8.0,75,0.00,,,0.00,meteohub,2013-06-17 01:32:00,
2013-06-16 21:37:00,74.8,66.7,29.88,WNW,283,2.0,8.0,76,0.00,,,0.00,meteohub,2013-06-17 01:37:00,
2013-06-16 21:42:00,74.7,66.6,29.89,West,281,2.0,8.0,76,0.00,,,0.00,meteohub,2013-06-17 01:42:00,
2013-06-16 21:47:00,74.7,66.6,29.89,WNW,284,5.0,8.0,76,0.00,,,0.00,meteohub,2013-06-17 01:47:00,
2013-06-16 21:52:00,74.5,66.7,29.89,WNW,302,3.0,8.0,77,0.00,,,0.00,meteohub,2013-06-17 01:52:00,
2013-06-16 21:57:00,74.5,66.7,29.89,WNW,301,3.0,8.0,77,0.00,,,0.00,meteohub,2013-06-17 01:57:00,
2013-06-16 22:02:00,74.3,66.6,29.90,West,274,1.0,8.0,77,0.00,,,0.00,meteohub,2013-06-17 02:02:00,
2013-06-16 22:07:00,74.1,66.7,29.90,West,273,2.0,8.0,78,0.00,,,0.00,meteohub,2013-06-17 02:07:00,
2013-06-16 22:12:00,73.9,66.6,29.90,NW,312,2.0,8.0,78,0.00,,,0.00,meteohub,2013-06-17 02:12:00,
2013-06-16 22:17:00,73.9,66.6,29.90,WNW,302,2.0,8.0,78,0.00,,,0.00,meteohub,2013-06-17 02:17:00,
2013-06-16 22:22:00,73.9,67.1,29.90,WNW,300,0.0,7.0,79,0.00,,,0.00,meteohub,2013-06-17 02:22:00,
2013-06-16 22:27:00,73.8,66.9,29.89,WNW,287,1.0,7.0,79,0.00,,,0.00,meteohub,2013-06-17 02:27:00,
2013-06-16 22:32:00,73.6,66.7,29.89,WNW,285,1.0,7.0,79,0.00,,,0.00,meteohub,2013-06-17 02:32:00,
2013-06-16 22:37:00,73.4,66.9,29.90,SSW,201,0.0,3.0,80,0.00,,,0.00,meteohub,2013-06-17 02:37:00,
2013-06-16 22:42:00,73.2,66.7,29.90,SSW,208,0.0,3.0,80,0.00,,,0.00,meteohub,2013-06-17 02:42:00,
2013-06-16 22:47:00,73.0,66.6,29.89,WNW,293,0.0,3.0,80,0.00,,,0.00,meteohub,2013-06-17 02:47:00,
2013-06-16 22:52:00,73.0,66.9,29.90,WNW,291,1.0,3.0,81,0.00,,,0.00,meteohub,2013-06-17 02:52:00,
2013-06-16 22:57:00,72.9,66.7,29.89,WNW,291,0.0,5.0,81,0.00,,,0.00,meteohub,2013-06-17 02:57:00,
2013-06-16 23:02:00,72.9,66.7,29.90,West,277,2.0,5.0,81,0.00,,,0.00,meteohub,2013-06-17 03:02:00,
2013-06-16 23:07:00,72.9,66.7,29.90,West,267,0.0,5.0,81,0.00,,,0.00,meteohub,2013-06-17 03:07:00,
2013-06-16 23:12:00,72.7,66.6,29.89,West,267,0.0,4.0,81,0.00,,,0.00,meteohub,2013-06-17 03:12:00,
2013-06-16 23:17:00,72.3,66.6,29.90,WNW,284,1.0,4.0,82,0.00,,,0.00,meteohub,2013-06-17 03:17:00,
2013-06-16 23:22:00,72.3,66.6,29.89,WNW,290,2.0,4.0,82,0.00,,,0.00,meteohub,2013-06-17 03:22:00,
2013-06-16 23:27:00,72.3,66.6,29.89,WNW,283,0.0,5.0,82,0.00,,,0.00,meteohub,2013-06-17 03:27:00,
2013-06-16 23:32:00,72.3,66.6,29.90,West,275,1.0,5.0,82,0.00,,,0.00,meteohub,2013-06-17 03:32:00,
2013-06-16 23:37:00,72.1,66.4,29.90,WNW,285,1.0,5.0,82,0.00,,,0.00,meteohub,2013-06-17 03:37:00,
2013-06-16 23:42:00,72.1,66.4,29.89,WNW,285,0.0,4.0,82,0.00,,,0.00,meteohub,2013-06-17 03:42:00,
2013-06-16 23:47:00,72.0,66.2,29.90,WNW,285,0.0,4.0,82,0.00,,,0.00,meteohub,2013-06-17 03:47:00,
2013-06-16 23:52:00,71.6,66.2,29.90,WNW,285,0.0,2.0,83,0.00,,,0.00,meteohub,2013-06-17 03:52:00,
2013-06-16 23:57:00,71.1,66.0,29.90,WNW,287,0.0,1.0,84,0.00,,,0.00,meteohub,2013-06-17 03:57:00,